Regional Weather Roundup
Issued by NWS Little Rock, AR

Home | Current Version | Previous Version | Text Only | Print | Product List | Glossary Off
Versions: 1 2 3 4 5 6 7 8 9 10 11 12 13 14 15 16 17 18 19 20 21 22 23 24 25 26 27 28 29 30 31 32 33 34 35 36 37 38 39 40 41 42 43 44 45 46 47 48 49 50

000
ASUS44 KLZK 031805
RWRLZK

WEATHER ROUNDUP FOR ARKANSAS
NATIONAL WEATHER SERVICE LITTLE ROCK AR
100 PM CDT THU SEP 03 2015

NOTE: "FAIR" INDICATES FEW OR NO CLOUDS BELOW 12,000 FEET WITH NO
SIGNIFICANT WEATHER AND/OR OBSTRUCTIONS TO VISIBILITY.

ARZ001-003-010-029-031900-
NORTHWEST ARKANSAS

CITY           SKY/WX    TMP DP  RH WIND       PRES   REMARKS
FAYETTEVILLE   SUNNY     85  70  60 S9        30.03F HX  89
6HR MIN TEMP:  64; 6HR MAX TEMP:  86;

FORT SMITH     SUNNY     89  67  47 NE6       29.98F HX  92
6HR MIN TEMP:  71; 6HR MAX TEMP:  89;

HARRISON       SUNNY     86  66  51 S8        30.04F HX  88
6HR MIN TEMP:  66; 6HR MAX TEMP:  87;

BENTONVILLE    SUNNY     88  64  45 S6        30.04F HX  89
6HR MIN TEMP:  66; 6HR MAX TEMP:  88;

ROGERS         PTSUNNY   86  69  56 SW5       30.04F HX  90
6HR MIN TEMP:  69; 6HR MAX TEMP:  86;

SILOAM SPGS    MOSUNNY   84  66  54 SW7       30.01F HX  86
6HR MIN TEMP:  68; 6HR MAX TEMP:  86;

HIGHFILL       MOSUNNY   86  69  56 S9        30.03  HX  90
6HR MIN TEMP:  66; 6HR MAX TEMP:  87;

SPRINGDALE     MOSUNNY   86  66  51 SE6G12    30.05F HX  88
$$

ARZ004-005-016-031900-
NORTH CENTRAL ARKANSAS

CITY           SKY/WX    TMP DP  RH WIND       PRES   REMARKS
BATESVILLE     MOSUNNY   90  70  51 SW5       30.01F HX  95
6HR MIN TEMP:  66; 6HR MAX TEMP:  90;

FLIPPIN        SUNNY     90  64  43 SE3       30.00F HX  91
6HR MIN TEMP:  64; 6HR MAX TEMP:  90;

MTN HOME       MOSUNNY   88  68  51 CALM      30.02F HX  91
6HR MIN TEMP:  66; 6HR MAX TEMP:  88;

$$

ARZ040-041-031900-
WEST CENTRAL ARKANSAS

CITY           SKY/WX    TMP DP  RH WIND       PRES   REMARKS
MENA           MOSUNNY   93  63  36 SE3       30.01F HX  94
MOUNT IDA      MOSUNNY   90  64  42 SE7       29.99F HX  91
6HR MIN TEMP:  66; 6HR MAX TEMP:  91;

$$

ARZ009-017-025-026-028-031900-
NORTHEAST ARKANSAS

CITY           SKY/WX    TMP DP  RH WIND       PRES   REMARKS
JONESBORO      MOSUNNY   88  69  53 VRB5      30.00F HX  92
6HR MIN TEMP:  67; 6HR MAX TEMP:  90;

NEWPORT        SUNNY     91  69  48 CALM      30.01F HX  95
6HR MIN TEMP:  72; 6HR MAX TEMP:  91;

WALNUT RIDGE   SUNNY     90  68  48 S3        29.99F HX  93
6HR MIN TEMP:  70; 6HR MAX TEMP:  90;

BLYTHEVILLE    PTSUNNY   93  73  52 NE3       30.00F HX 102
6HR MIN TEMP:  70; 6HR MAX TEMP:  93;

$$

ARZ022-023-033-042-044-031900-
CENTRAL ARKANSAS

CITY           SKY/WX    TMP DP  RH WIND       PRES   REMARKS
LITTLE ROCK    MOSUNNY   93  67  42 SE9       29.99F HX  96
6HR MIN TEMP:  72; 6HR MAX TEMP:  94;

N LITTLE ROCK  MOSUNNY   91  72  52 E7        29.99F HX  98
6HR MIN TEMP:  73; 6HR MAX TEMP:  92;

JACKSONVILLE   SUNNY     91  70  49 S6        29.99F HX  96
6HR MIN TEMP:  67; 6HR MAX TEMP:  91;

SEARCY         SUNNY     91  68  46 VRB5      30.01F HX  95
6HR MIN TEMP:  68; 6HR MAX TEMP:  92;

HOT SPRINGS    SUNNY     91  67  44 MISG      30.00F HX  94
6HR MIN TEMP:  68; 6HR MAX TEMP:  91;

RUSSELLVILLE   SUNNY     90  69  50 E7        29.99F HX  94
6HR MIN TEMP:  67; 6HR MAX TEMP:  90;

$$

ARZ036-031900-
EAST ARKANSAS

CITY           SKY/WX    TMP DP  RH WIND       PRES   REMARKS
WEST MEMPHIS   MOSUNNY   87  73  62 SW5       30.00F HX  94
6HR MIN TEMP:  68; 6HR MAX TEMP:  89;

$$

ARZ050-053-066-070-073-031900-
SOUTHWEST ARKANSAS

CITY           SKY/WX    TMP DP  RH WIND       PRES   REMARKS
ARKADELPHIA    FAIR      94  70  45 VRB3      29.99F HX 100
6HR MIN TEMP:  66; 6HR MAX TEMP:  94;

CAMDEN         SUNNY     91  66  43 S7        29.98F HX  94
TEXARKANA      SUNNY     92  66  42 VRB7      29.99F HX  94
6HR MIN TEMP:  68; 6HR MAX TEMP:  92;

EL DORADO      MOSUNNY   91  66  43 NE5       29.99F HX  93
6HR MIN TEMP:  66; 6HR MAX TEMP:  92;

DE QUEEN       MOSUNNY   92  68  45 SE8       29.97F HX  96
6HR MIN TEMP:  66; 6HR MAX TEMP:  92;

$$

ARZ056-057-069-031900-
SOUTHEAST ARKANSAS

CITY           SKY/WX    TMP DP  RH WIND       PRES   REMARKS
PINE BLUFF     MOSUNNY   91  71  51 VRB5      29.99F HX  97
6HR MIN TEMP:  68; 6HR MAX TEMP:  91;

STUTTGART      MOSUNNY   90  68  48 E3        30.00F HX  93
6HR MIN TEMP:  70; 6HR MAX TEMP:  90;

MONTICELLO     SUNNY     92  67  43 VRB6      29.98F HX  95
6HR MIN TEMP:  70; 6HR MAX TEMP:  92;


$$





USA.gov is the U.S. government's official web portal to all federal, state and local government web resources and services.